STARLINK-1296, 45412

Orbit data source: Space-Track

STARLINK-1296, 45412 is a payload satellite owned by SpaceX/Seattle (US) in LEO that was launched on Wed, 18 Mar 2020 UTC via an FALCON 9 launch vehicle from the Air Force Eastern Test Range (AFETR). Payload-class satellites include a variety of spacecraft equipped with specific instruments for various scientific and technological missions. These include communications satellites like Starlink; space stations such as the ISS; scientific satellites like the Hubble; Earth observation satellites from companies like Planet Labs, Umbra, and HawkEye 360; GPS; miniature CubeSats for education and research; and military/defense satellites.

Loading next visibility...
Identifier
45412, 2020-019BE
Orbit
LEO
Country
Flag of USUS
Related business
Manufacturer
SpaceX/Seattle
Mission
Operational Commercial Communications
Bus & Motor
STARLINK, Unknown motor
Mass
260 kg wet, ~248 kg dry
Launch date (UTC)
2020-03-18 (6 years ago)
Launch vehicle
FALCON 9
Launch site
Air Force Eastern Test Range (AFETR)
Object type
Payload
Rocket body
Debris
Shape & HBR
Box + 1 Pan, 10.1 m
Radar Cross Section
13.562 m², Large (>1 m²)

Expand to show TLE details & history
Last TLE update: 6 hours ago

TLE from 6 hours ago
0 STARLINK-1296
1 45412U 20019BE  25296.57418428 -.00002765  00000-0 -16684-3 0  9991
2 45412  53.0537  32.1507 0001165  73.7377 286.3740 15.06391108309192
Epoch: 2025-10-23T13:46Z
TLE epoch observation values (Epoch: 2025-10-23T13:46:49.521Z)
Latitude
-0.00004°
Longitude
153.21285°
Altitude
547.891 km
Speed
7.589 km/s
True Right ascension
02h 08m 36s
True Declination
0° 00' 00"
Sunlit
Object was in full shadow at epoch
Visualization orbit readout
Latitude
Unknown
Longitude
Unknown
Altitude
Unknown
Speed
Unknown
Apparent Right ascension
Unknown
Apparent Declination
Unknown
Sunlit
N/A
Visualization observer readout
Local Sidereal Time
14:59:44
Azimuth
Unknown
Elevation
Unknown
Doppler factor
Unknown
Orbital elements
Apogee altitude
548.316 km
Perigee altitude
546.703 km
Semi-major axis
6,925.647 km
Eccentricity
0.00012
Inclination
53.0537°
RAAN
32.1507°
Arg. of periapsis
73.7377°
True anomaly
286.36119°
Mean anomaly
286.374°
Eccentric anomaly
286.3676°
Mean motion
3.76576 °/min
Orbital period
95.6 mins
BSTAR
-0.00016684
Loading maneuver chart data...
Computing Atmospheric mass density...
Loading historical data...
Loading historical data...
Loading historical data...
Loading historical data...
Loading historical data...
Loading historical data...
Loading historical data...

Documentation

Showing up to 5 results
|